#timestamp,LO_Frequency,Hit,StdDev 
1571756415.2,286046999.6,N
1571756435.0,286046996.6,Y
1571756436.0,286046996.6,P
1571756455.8,286046996.5,N
1571756475.6,286046999.0,N
1571756495.4,286046999.4,N
1571756515.3,286046998.8,N
1571756535.1,286046999.3,N
1571756555.8,286046999.1,N
1571756575.7,286046995.0,Y
1571756595.5,286046999.6,P
1571756615.3,286046999.5,N
1571756635.2,286046999.6,N
1571756655.0,286046999.5,N
1571756655.9,286046999.5,N
1571756675.7,286046999.0,N
1571756695.6,286046997.2,Y
1571756715.4,286047011.9,P
1571756735.2,286046998.1,N
1571756755.1,286047001.0,N
1571756756.0,286047001.0,N
1571756775.8,286047000.7,N
1571756795.6,286047002.2,N
1571756815.5,286046999.8,N
1571756835.3,286046998.1,N
1571756855.1,286047000.9,N
1571756875.9,286047001.1,N
1571756895.7,286047001.2,N
1571756915.5,286046998.1,N
1571756935.4,286046999.3,N
1571756955.2,286046997.1,N
1571756975.0,286046996.8,N
1571756975.9,286046996.8,N
1571756995.8,286046997.4,N
1571757015.6,286046997.2,N
1571757035.4,286046998.6,N
1571757055.3,286046999.4,N
1571757075.1,286046996.8,N
1571757095.8,286046995.5,N
1571757115.7,286046995.8,N
1571757135.5,286046995.1,N
1571757155.3,286046996.0,N
1571757175.2,286046996.2,N
1571757195.9,286046993.7,N
1571757215.7,286046993.4,N
1571757235.6,286046993.7,N
1571757255.4,286046992.2,N
1571757275.2,286046994.4,N
1571757295.1,286046994.7,N
1571757296.0,286046994.7,N
1571757315.8,286046994.1,N
1571757335.6,286046994.6,N
1571757355.5,286046994.4,N
1571757375.3,286046992.2,Y
1571757395.1,286046997.2,P
1571757415.9,286046996.9,P
1571757435.7,286046996.9,P
1571757455.5,286046998.6,Y
1571757475.4,286047002.1,P
1571757495.2,286046999.7,N
1571757515.0,286047002.0,N
1571757515.9,286047002.0,N
1571757535.8,286047001.5,N
1571757555.6,286047001.5,N
1571757575.4,286047001.6,N
1571757595.3,286047001.3,N
1571757615.1,286047002.0,N
1571757616.0,286047002.0,N
1571757635.8,286047002.3,N
1571757655.7,286047004.3,N
1571757675.5,286047002.7,N
1571757695.3,286047002.7,N
1571757715.2,286046999.7,N
1571757735.9,286047002.1,N
1571757755.7,286047001.7,N
1571757775.6,286047000.3,N
1571757795.4,286047001.2,N
1571757815.2,286047001.5,N
1571757835.0,286047001.6,N
1571757835.9,286047001.6,N
1571757855.8,286047004.0,N
1571757875.6,286047003.4,N
1571757895.4,286047001.8,N
1571757915.3,286047003.5,N
1571757935.1,286047004.0,N
1571757955.8,286047005.2,Y
1571757975.7,286047004.4,P
1571757995.5,286047002.2,N
1571758015.3,286047004.3,P
1571758035.2,286047007.5,Y
1571758055.0,286047001.7,P
1571758055.9,286047001.7,N
1571758075.7,286047004.0,P
1571758095.6,286047001.5,N
1571758115.4,286047000.2,N
1571758135.2,286047002.3,N
1571758155.1,286047001.5,N
1571758156.0,286047001.5,N
1571758175.8,286046999.7,N
1571758195.6,286046999.8,N
1571758215.5,286047003.9,Y
1571758235.3,286047005.9,P
1571758255.1,286047011.9,P
1571758275.9,286047005.4,N
1571758295.7,286047003.1,N
1571758315.5,286047005.9,N
1571758335.4,286047004.1,N
1571758355.2,286047005.5,N
1571758375.0,286047005.3,N
1571758375.9,286047005.3,N
1571758395.8,286047005.5,N
1571758415.6,286047004.5,N
1571758435.4,286047006.5,N
1571758455.3,286047009.1,Y
1571758475.1,286047002.1,P
1571758495.8,286047001.5,N
1571758515.7,286047004.1,N
1571758535.5,286047003.4,N
1571758555.3,286047003.7,N
1571758575.2,286047003.9,Y
1571758595.0,286047000.5,P
1571758595.9,286047000.5,N
1571758615.7,286047002.0,N
1571758635.6,286047001.0,N
1571758655.4,286047000.2,N
1571758675.2,286047002.5,N
1571758695.1,286047001.5,N
1571758696.0,286047001.5,N
1571758715.8,286047001.0,N
1571758735.6,286047000.9,N
1571758755.5,286047000.5,N
1571758775.3,286047000.3,N
1571758795.1,286047002.1,N
1571758815.9,286047001.8,N
1571758835.7,286047002.0,N
1571758855.5,286047001.4,N
1571758875.4,286047001.9,N
1571758895.2,286047004.2,Y
1571758915.0,286047001.4,P
1571758915.9,286047001.4,P
1571758935.8,286047004.0,P
1571758955.6,286047002.7,N
1571758975.4,286047001.6,N
1571758995.3,286047001.5,N
1571759015.1,286047003.9,Y
1571759016.0,286047003.9,P
1571759035.8,286047002.5,N
1571759055.7,286047003.6,P
1571759075.5,286047002.1,N
1571759095.3,286047004.1,Y
1571759115.2,286046999.9,P
1571759135.9,286047002.6,N
1571759155.7,286047001.7,N
1571759175.6,286047004.3,Y
1571759195.4,286047002.6,P
1571759215.2,286047004.3,P
1571759235.1,286047003.3,P
1571759236.0,286047003.3,Y
1571759255.8,286047002.6,P
1571759275.6,286047001.6,P
1571759295.5,286047001.9,P
1571759315.3,286046999.7,N
1571759335.1,286047001.0,N
1571759355.9,286046999.7,N
1571759375.7,286047000.6,N
1571759395.5,286047000.1,N
1571759415.4,286047002.7,N
1571759435.2,286047002.2,N
1571759455.0,286046999.7,N
1571759455.9,286046999.7,N
1571759475.8,286047002.8,N
1571759495.6,286047002.1,N
1571759515.4,286047002.9,N
1571759535.3,286047001.3,N
1571759555.1,286047004.0,Y
1571759556.0,286047004.0,P
1571759575.8,286047004.3,P
1571759595.7,286047003.5,N
1571759615.5,286047001.6,N
1571759635.3,286046999.9,N
1571759655.2,286047004.3,N
1571759675.9,286047003.2,N
1571759695.7,286047005.9,Y
1571759715.6,286047001.8,P
1571759735.4,286047004.2,P
1571759755.2,286047003.3,P
1571759775.1,286047005.1,Y
1571759776.0,286047005.1,P
1571759795.8,286047001.3,N
1571759815.6,286047004.1,N
1571759835.5,286047002.6,N
1571759855.3,286047000.4,N
1571759875.1,286047000.5,N
1571759895.9,286047000.1,N
1571759915.7,286047000.5,N
1571759935.5,286047000.4,N
1571759955.3,286047000.1,N
1571759975.2,286047004.0,N
1571759995.0,286047002.1,N
1571759995.9,286047002.1,N
